TimeMST,TemperatureF,Dew PointF,Humidity,Sea Level PressureIn,VisibilityMPH,Wind Direction,Wind SpeedMPH,Gust SpeedMPH,PrecipitationIn,Events,Conditions,WindDirDegrees,DateUTC
12:35 AM,33.4,23.9,68,30.23,10.0,East,3.5,-,N/A,,Clear,100,2013-03-03 07:35:00
12:55 AM,38.3,22.1,52,30.23,10.0,Calm,Calm,-,N/A,,Clear,0,2013-03-03 07:55:00
1:15 AM,39.6,21.9,49,30.23,10.0,Calm,Calm,-,N/A,,Clear,0,2013-03-03 08:15:00
1:35 AM,36.3,21.9,56,30.22,10.0,WNW,8.1,-,N/A,,Clear,300,2013-03-03 08:35:00
1:55 AM,35.6,23.2,61,30.22,10.0,SSW,4.6,-,N/A,,Clear,200,2013-03-03 08:55:00
2:15 AM,31.3,23.7,74,30.20,10.0,Calm,Calm,-,N/A,,Clear,0,2013-03-03 09:15:00
2:35 AM,29.7,23.0,76,30.19,10.0,NE,3.5,-,N/A,,Clear,40,2013-03-03 09:35:00
2:55 AM,30.2,22.8,74,30.19,10.0,ENE,3.5,-,N/A,,Clear,60,2013-03-03 09:55:00
3:15 AM,29.8,23.5,77,30.18,10.0,Calm,Calm,-,N/A,,Clear,0,2013-03-03 10:15:00
3:35 AM,28.2,22.6,80,30.17,10.0,Calm,Calm,-,N/A,,Clear,0,2013-03-03 10:35:00
3:55 AM,28.9,23.0,78,30.16,10.0,Calm,Calm,-,N/A,,Clear,0,2013-03-03 10:55:00
4:15 AM,26.2,21.9,84,30.16,10.0,Calm,Calm,-,N/A,,Clear,0,2013-03-03 11:15:00
4:35 AM,28.0,22.6,80,30.15,10.0,South,3.5,-,N/A,,Clear,180,2013-03-03 11:35:00
5:15 AM,27.0,22.3,83,30.14,10.0,South,3.5,-,N/A,,Clear,180,2013-03-03 12:15:00
5:35 AM,30.4,22.6,73,30.13,10.0,Calm,Calm,-,N/A,,Clear,0,2013-03-03 12:35:00
5:55 AM,25.2,20.8,84,30.14,10.0,Calm,Calm,-,N/A,,Clear,0,2013-03-03 12:55:00
6:15 AM,26.4,21.2,81,30.13,10.0,Calm,Calm,-,N/A,,Clear,0,2013-03-03 13:15:00
6:35 AM,28.8,21.4,74,30.12,10.0,Calm,Calm,-,N/A,,Clear,0,2013-03-03 13:35:00
6:55 AM,25.9,20.5,80,30.12,10.0,Calm,Calm,-,N/A,,Clear,0,2013-03-03 13:55:00
7:15 AM,28.2,21.7,77,30.12,10.0,South,4.6,-,N/A,,Clear,190,2013-03-03 14:15:00
7:35 AM,34.7,25.7,70,30.12,10.0,South,3.5,-,N/A,,Clear,190,2013-03-03 14:35:00
7:55 AM,40.1,27.9,62,30.11,10.0,SSW,4.6,-,N/A,,Clear,200,2013-03-03 14:55:00
8:15 AM,45.7,25.7,46,30.11,10.0,SW,11.5,-,N/A,,Clear,230,2013-03-03 15:15:00
8:35 AM,52.5,21.2,29,30.10,10.0,West,12.7,17.3,N/A,,Clear,270,2013-03-03 15:35:00
8:55 AM,55.2,19.0,24,30.10,10.0,West,13.8,19.6,N/A,,Clear,270,2013-03-03 15:55:00
9:15 AM,57.4,17.2,21,30.10,10.0,West,18.4,24.2,N/A,,Clear,260,2013-03-03 16:15:00
9:35 AM,54.7,16.5,22,30.10,10.0,West,17.3,25.3,N/A,,Clear,260,2013-03-03 16:35:00
9:55 AM,56.5,16.7,21,30.08,10.0,West,18.4,23.0,N/A,,Clear,260,2013-03-03 16:55:00
10:15 AM,57.7,14.0,18,30.08,10.0,WSW,23.0,29.9,N/A,,Clear,250,2013-03-03 17:15:00
10:35 AM,60.4,12.9,16,30.07,10.0,WSW,20.7,29.9,N/A,,Clear,250,2013-03-03 17:35:00
10:55 AM,60.6,13.3,16,30.06,10.0,West,20.7,28.8,N/A,,Clear,280,2013-03-03 17:55:00
11:15 AM,-9999,-9999,N/A,-9999,-9999.0,North,-9999.0,-,N/A,,Unknown,0,2013-03-03 18:15:00
11:35 AM,60.3,11.3,15,30.04,-9999.0,West,23.0,28.8,0.03,,Clear,280,2013-03-03 18:35:00
11:55 AM,61.5,11.3,14,30.02,10.0,West,19.6,26.5,0.03,,Clear,280,2013-03-03 18:55:00
12:35 PM,63.3,9.3,12,30.00,10.0,WNW,21.9,29.9,N/A,,Clear,290,2013-03-03 19:35:00
12:55 PM,64.9,8.1,11,29.99,10.0,West,29.9,36.8,N/A,,Clear,270,2013-03-03 19:55:00
1:15 PM,64.8,8.2,11,29.98,10.0,West,21.9,29.9,N/A,,Clear,280,2013-03-03 20:15:00
1:35 PM,66.2,6.6,10,29.98,10.0,West,26.5,34.5,N/A,,Clear,260,2013-03-03 20:35:00
1:55 PM,66.6,8.2,10,29.97,10.0,West,19.6,28.8,N/A,,Clear,270,2013-03-03 20:55:00
2:15 PM,63.0,6.8,11,29.98,10.0,West,20.7,33.4,N/A,,Clear,270,2013-03-03 21:15:00
2:35 PM,63.1,7.0,11,29.95,10.0,West,21.9,25.3,N/A,,Scattered Clouds,260,2013-03-03 21:35:00
2:55 PM,61.7,6.3,11,29.95,10.0,WSW,17.3,25.3,N/A,,Clear,250,2013-03-03 21:55:00
3:15 PM,61.7,6.1,11,29.94,10.0,WSW,17.3,26.5,N/A,,Clear,250,2013-03-03 22:15:00
3:35 PM,61.7,4.8,10,29.94,10.0,WSW,23.0,29.9,N/A,,Scattered Clouds,250,2013-03-03 22:35:00
3:55 PM,63.1,5.5,10,29.93,10.0,West,17.3,27.6,N/A,,Overcast,260,2013-03-03 22:55:00
4:15 PM,65.3,6.8,10,29.94,10.0,WNW,17.3,25.3,N/A,,Overcast,290,2013-03-03 23:15:00
4:35 PM,64.4,7.3,11,29.93,10.0,WSW,15.0,29.9,N/A,,Mostly Cloudy,250,2013-03-03 23:35:00
4:55 PM,62.8,7.3,11,29.93,10.0,West,9.2,-,N/A,,Scattered Clouds,280,2013-03-03 23:55:00
5:35 PM,58.5,8.2,14,29.94,10.0,WNW,17.3,31.1,N/A,,Overcast,290,2013-03-04 00:35:00
5:55 PM,59.0,8.8,14,29.93,10.0,WNW,18.4,32.2,N/A,,Overcast,290,2013-03-04 00:55:00
6:15 PM,58.6,8.6,14,29.94,10.0,WSW,19.6,28.8,N/A,,Mostly Cloudy,250,2013-03-04 01:15:00
6:35 PM,57.2,8.6,14,29.93,10.0,West,15.0,25.3,N/A,,Scattered Clouds,280,2013-03-04 01:35:00
6:55 PM,55.9,17.2,22,29.94,7.0,West,27.6,42.6,N/A,,Scattered Clouds,280,2013-03-04 01:55:00
7:15 PM,55.2,22.6,28,29.94,10.0,West,23.0,43.7,N/A,,Scattered Clouds,270,2013-03-04 02:15:00
7:35 PM,54.7,23.2,29,29.94,10.0,West,27.6,36.8,N/A,,Clear,270,2013-03-04 02:35:00
7:55 PM,54.0,23.5,31,29.93,10.0,West,20.7,27.6,N/A,,Clear,280,2013-03-04 02:55:00
8:15 PM,53.8,24.1,32,29.94,10.0,West,17.3,-,N/A,,Mostly Cloudy,280,2013-03-04 03:15:00
8:35 PM,52.3,23.5,33,29.94,10.0,West,16.1,23.0,N/A,,Scattered Clouds,280,2013-03-04 03:35:00
8:55 PM,50.5,23.5,35,29.94,10.0,WNW,12.7,-,N/A,,Clear,290,2013-03-04 03:55:00
9:15 PM,52.5,22.8,31,29.94,10.0,West,15.0,-,N/A,,Clear,270,2013-03-04 04:15:00
9:35 PM,53.1,21.2,29,29.95,10.0,West,13.8,19.6,N/A,,Clear,270,2013-03-04 04:35:00
9:55 PM,52.9,21.0,29,29.93,10.0,WNW,18.4,29.9,N/A,,Scattered Clouds,290,2013-03-04 04:55:00
10:15 PM,53.4,20.3,27,29.92,10.0,West,26.5,34.5,N/A,,Clear,270,2013-03-04 05:15:00
10:35 PM,53.4,20.3,27,29.92,10.0,West,34.5,41.4,N/A,,Clear,260,2013-03-04 05:35:00
10:55 PM,53.2,20.3,28,29.92,10.0,West,31.1,41.4,N/A,,Clear,260,2013-03-04 05:55:00
11:15 PM,52.7,21.2,29,29.93,10.0,West,26.5,40.3,N/A,,Clear,260,2013-03-04 06:15:00
11:35 PM,51.8,21.2,30,29.92,10.0,West,23.0,31.1,N/A,,Clear,270,2013-03-04 06:35:00
11:55 PM,51.1,21.6,31,29.92,10.0,West,19.6,28.8,N/A,,Clear,270,2013-03-04 06:55:00